map of GLH home
Great Circle Mapper logo
GLH - Airport
Location
City:  Greenville, Mississippi, United States
Name:Greenville Mid-Delta Airport
ICAO / IATA:KGLH / GLH
FAA:GLH

Details
Type:Airport (Part 139 Class I)
Use:Public/Civil
Latitude:3328'58"N (33.482881)
Longitude:9059'08"W (-90.985613)
Datum:WGS 1984
Elevation:131 ft (40 m)
Variation:0.25W (WMM2015 magnetic declination)
-0.10 annual change
Runways:2
Longest:8001 × 150 ft (2439 × 45.5 m), paved

Time
Time Zone:UTC-6 (DST-5)
Local Time:

Weather
METAR:KGLH 260153Z AUTO 21009KT 9SM CLR 24/20 A2962 RMK AO2 SLP036 T02390200
TAF:KGLH 252320Z 2600/2624 23010KT P6SM FEW025
FM260900 29008KT 4SM BR BKN007
FM261400 35011KT P6SM SCT015

Related Locations
Nearby:
Farthest:MGV: 10945 mi / 17615 km
Margaret River, WA, AU

Find:

   beyond  
but within

Other Information
Maps:
Delays:
NOTAMs:
Links:
Sources:

  
flag of United States
flag of Mississippi
  

Airport Diagram

Airport diagram for GLH

Airport diagram PDF

Sectional Chart

Flight Planning
at skyvector.com

Satellite Image

Google Maps Satellite View

 

Copyright © 2004-2015 Karl L. Swartz. All rights reserved.
The Great Circle Mapper name and logo are trademarks of the Great Circle Mapper.
All other trademarks mentioned herein belong to their respective owners.
Please see credits for attibutions and further copyright information.

  Follow gcmap on Facebook Follow gcmap on Twitter Follow gcmap on Google+

hCard Microformat

Geo Microformat